Regional Weather Roundup
Issued by NWS

Home | Current Version | Previous Version | Graphics & Text | Print | Product List | Glossary On
Versions: 1 2 3 4 5 6 7 8 9 10 11 12 13 14 15 16 17 18 19 20 21 22 23 24 25 26 27
000
ASUS45 KBOU 280707
RWRCO

WEATHER ROUNDUP FOR COLORADO
NATIONAL WEATHER SERVICE DENVER/BOULDER CO
100 AM MDT SUN AUG 28 2016

NOTE: "FAIR" INDICATES FEW OR NO CLOUDS BELOW 12000 FEET WITH NO
SIGNIFICANT WEATHER AND/OR OBSTRUCTIONS TO VISIBILITY.

COZ001>005-013-030-031-280800-
...NORTHWEST COLORADO...

CITY           SKY/WX    TMP DP  RH WIND       PRES   REMARKS
CRAIG          FAIR      52  37  56 CALM      30.23R
HAYDEN         FAIR      54  32  43 E8        30.25R
MEEKER         FAIR      49  42  77 CALM      30.26R
MOUNT WERNER   NOT AVBL
STEAMBOAT SPGS FAIR      50  33  53 CALM      30.27R
WALDEN         FAIR      37  30  75 SE8       30.35R
$$

COZ006>008-011-280800-
...WEST CENTRAL VALLEYS...

CITY           SKY/WX    TMP DP  RH WIND       PRES   REMARKS
GRAND JUNCTION FAIR      63  48  58 E7        30.16R
MONTROSE       FAIR      59  48  67 SE6       30.24S
EAGLE          FAIR      54  43  66 E6        30.29R
RIFLE          FAIR      57  50  77 CALM      30.21R
DELTA          NOT AVBL
NUCLA          FAIR     N/A N/A N/A S3        30.29S
$$

COZ017>023-064>068-280800-
...SOUTHWEST COLORADO...

CITY           SKY/WX    TMP DP  RH WIND       PRES   REMARKS
DURANGO        FAIR      49  45  86 CALM      30.29S
CORTEZ         FAIR      53  49  86 S3        30.25R
PAGOSA SPRINGS FAIR      49  47  93 CALM      30.35S
TELLURIDE      CLOUDY    47  46  97 CALM      30.43S
WOLF CREEK PAS FAIR      36  36 100 CALM      30.59S
$$

COZ009-010-012-014-032>034-037-058>063-280800-
...CENTRAL COLORADO...

CITY           SKY/WX    TMP DP  RH WIND       PRES   REMARKS
ASPEN          FAIR      47  41  80 SW3       30.34R
BUENA VISTA    FAIR      48  42  77 W3        30.34R
COPPER MTN     FAIR      45  32  61 W9        30.57S
BERTHOUD PASS  FAIR      37  25  60 N13G23    30.60S
COTTONWOOD PAS FAIR      52  34  50 SW12      30.44S
GUNNISON       FAIR      50  45  81 N6        30.38S
KREMMLING      FAIR      46  36  66 CALM      30.33R
LEADVILLE      FAIR      41  34  76 CALM      30.44R
MONARCH PASS   MOCLDY    37  34  87 W12       30.66S
SALIDA         FAIR      57  41  54 NW5       30.38S
SUNLIGHT       FAIR      46  37  71 E5        30.53S
WILKERSON PASS FAIR      43  34  70 SW5       30.55S
$$

COZ069>075-280800-
...SAN LUIS VALLEY/SANGRE DE CRISTO MOUNTAINS...

CITY           SKY/WX    TMP DP  RH WIND       PRES   REMARKS
ALAMOSA        FAIR      47  43  86 W6        30.33S
LA VETA PASS   FAIR      45  37  76 S6        30.45R
SAGUACHE       FAIR      50  41  71 NW9       30.35S
$$

COZ035-036-038>040-280800-
...NORTHERN COLORADO FRONT RANGE...

CITY           SKY/WX    TMP DP  RH WIND       PRES   REMARKS
DENVER INTL AP FAIR      63  46  54 S10       30.12F
DMNS CITY PARK   N/A     65  42  43 S3G9      30.12R
AURORA         PTCLDY    64  47  54 S10       30.14F
FRONT RANGE AP NOT AVBL
ERIE MUNI ARPT NOT AVBL
BOULDER MUN AP FAIR      63  41  45 CALM      30.11S
CENTENNIAL     FAIR      64  45  49 S5        30.15F
BROOMFIELD     FAIR      64  36  34 E7        30.15R
FORT COLLINS   FAIR      59  45  58 N9        30.10S
LONGMONT       FAIR      60  44  57 CALM      30.12S
$$

COZ041-046-047-076>085-087-088-280800-
...PIKES PEAK/PALMER DIVIDE AND SOUTHERN FOOTHILLS...

CITY           SKY/WX    TMP DP  RH WIND       PRES   REMARKS
COLO. SPRINGS  MOCLDY    61  46  57 N7        30.20F
A. F. ACADEMY  FAIR      52  47  83 E7        30.21F
SCHRIEVER AFB  NOT AVBL
ELLICOTT       NOT AVBL
FALCON         FAIR      56  47  70 W6        30.25S
FORT CARSON    CLOUDY    63  49  58 W10       30.15F
LIMON          FAIR      53  51  93 N3        30.17R
MONUMENT HILL  FAIR      55  45  67 S8        30.25S
TRINIDAD       FAIR      61  47  59 NW9       30.17R
$$

COZ042>045-048>051-090-091-280800-
...NORTHEAST COLORADO...

CITY           SKY/WX    TMP DP  RH WIND       PRES   REMARKS
GREELEY ARPT   FAIR      61  48  63 E3        30.10S
AKRON          FAIR      61  52  72 S10       30.09F
BURLINGTON     FAIR      63  56  78 S14       30.09S
WRAY           NOT AVBL
STERLING       FAIR      57  50  77 SW5       30.06S
HOLYOKE        FAIR      59  55  88 SE6       30.07S
FORT MORGAN    FAIR      58  47  67 NW5       30.10R
$$

COZ086-089-092>099-280800-
...SOUTHEAST COLORADO...

CITY           SKY/WX    TMP DP  RH WIND       PRES   REMARKS
PUEBLO         FAIR      65  54  67 W7        30.08R
LA JUNTA       FAIR      66  55  67 SE5       30.07R
LAMAR          FAIR      68  54  60 SE10      30.07R
SPRINGFIELD      N/A     62  57  83 S14G21    30.14R
$$




USA.gov is the U.S. government's official web portal to all federal, state and local government web resources and services.